Year,Month,Day,Hour,Minute,Value (Times are PST for temperature in C)
2006,10,04,00,00,9.70
2006,10,04,00,01,9.70
2006,10,04,00,02,9.70
2006,10,04,00,03,9.70
2006,10,04,00,04,9.70
2006,10,04,00,05,9.70
2006,10,04,00,06,9.70
2006,10,04,00,07,9.70
2006,10,04,00,08,9.70
2006,10,04,00,09,9.70
2006,10,04,00,10,9.70
2006,10,04,00,11,9.70
2006,10,04,00,12,9.70
2006,10,04,00,13,9.70
2006,10,04,00,14,9.70
2006,10,04,00,15,9.70
2006,10,04,00,16,9.70
2006,10,04,00,17,9.70
2006,10,04,00,18,9.70
2006,10,04,00,19,9.70
2006,10,04,00,20,9.70
2006,10,04,00,21,9.70
2006,10,04,00,22,9.80
2006,10,04,00,23,9.80
2006,10,04,00,24,9.80
2006,10,04,00,25,9.80
2006,10,04,00,26,9.80
2006,10,04,00,27,9.80
2006,10,04,00,28,9.80
2006,10,04,00,29,9.70
2006,10,04,00,30,9.70
2006,10,04,00,31,9.70
2006,10,04,00,32,9.70
2006,10,04,00,33,9.70
2006,10,04,00,34,9.70
2006,10,04,00,35,9.70
2006,10,04,00,36,9.70
2006,10,04,00,37,9.70
2006,10,04,00,38,9.70
2006,10,04,00,39,9.70
2006,10,04,00,40,9.70
2006,10,04,00,41,9.70
2006,10,04,00,42,9.70
2006,10,04,00,43,9.70
2006,10,04,00,44,9.70
2006,10,04,00,45,9.80
2006,10,04,00,46,9.80
2006,10,04,00,47,9.80
2006,10,04,00,48,9.80
2006,10,04,00,49,9.80
2006,10,04,00,50,9.90
2006,10,04,00,51,9.90
2006,10,04,00,52,9.90
2006,10,04,00,53,9.90
2006,10,04,00,54,9.90
2006,10,04,00,55,9.90
2006,10,04,00,56,9.90
2006,10,04,00,57,9.90
2006,10,04,00,58,9.90
2006,10,04,00,59,9.90
2006,10,04,01,00,9.90
2006,10,04,01,01,9.90
2006,10,04,01,02,9.90
2006,10,04,01,03,9.90
2006,10,04,01,04,9.90
2006,10,04,01,05,9.90
2006,10,04,01,06,9.90
2006,10,04,01,07,9.90
2006,10,04,01,08,9.90
2006,10,04,01,09,9.90
2006,10,04,01,10,9.90
2006,10,04,01,11,9.90
2006,10,04,01,12,9.90
2006,10,04,01,13,9.90
2006,10,04,01,14,9.90
2006,10,04,01,15,9.90
2006,10,04,01,16,9.90
2006,10,04,01,17,9.90
2006,10,04,01,18,9.90
2006,10,04,01,19,9.90
2006,10,04,01,20,9.90
2006,10,04,01,21,9.90
2006,10,04,01,22,9.90
2006,10,04,01,23,9.90
2006,10,04,01,24,9.90
2006,10,04,01,25,9.90
2006,10,04,01,26,9.90
2006,10,04,01,27,9.90
2006,10,04,01,28,9.90
2006,10,04,01,29,9.90
2006,10,04,01,30,9.90
2006,10,04,01,31,9.90
2006,10,04,01,32,9.90
2006,10,04,01,33,9.90
2006,10,04,01,34,9.90
2006,10,04,01,35,9.90
2006,10,04,01,36,9.90
2006,10,04,01,37,9.90
2006,10,04,01,38,9.90
2006,10,04,01,39,9.90
2006,10,04,01,40,9.90
2006,10,04,01,41,9.90
2006,10,04,01,42,9.90
2006,10,04,01,43,9.90
2006,10,04,01,44,9.90
2006,10,04,01,45,9.90
2006,10,04,01,46,9.80
2006,10,04,01,47,9.80
2006,10,04,01,48,9.80
2006,10,04,01,49,9.80
2006,10,04,01,50,9.80
2006,10,04,01,51,9.80
2006,10,04,01,52,9.80
2006,10,04,01,53,9.80
2006,10,04,01,54,9.80
2006,10,04,01,55,9.80
2006,10,04,01,56,9.80
2006,10,04,01,57,9.80
2006,10,04,01,58,9.80
2006,10,04,01,59,9.80
2006,10,04,02,00,9.80
2006,10,04,02,01,9.80
2006,10,04,02,02,9.80
2006,10,04,02,03,9.80
2006,10,04,02,04,9.80
2006,10,04,02,05,9.80
2006,10,04,02,06,9.80
2006,10,04,02,07,9.80
2006,10,04,02,08,9.90
2006,10,04,02,09,9.90
2006,10,04,02,10,9.90
2006,10,04,02,11,9.90
2006,10,04,02,12,9.90
2006,10,04,02,13,9.90
2006,10,04,02,14,9.90
2006,10,04,02,15,9.90
2006,10,04,02,16,9.90
2006,10,04,02,17,9.90
2006,10,04,02,18,9.90
2006,10,04,02,19,9.90
2006,10,04,02,20,9.90
2006,10,04,02,21,9.90
2006,10,04,02,22,9.90
2006,10,04,02,23,9.90
2006,10,04,02,24,9.90
2006,10,04,02,25,9.90
2006,10,04,02,26,9.90
2006,10,04,02,27,9.90
2006,10,04,02,28,9.90
2006,10,04,02,29,9.90
2006,10,04,02,30,9.90
2006,10,04,02,31,9.90
2006,10,04,02,32,9.90
2006,10,04,02,33,9.90
2006,10,04,02,34,9.90
2006,10,04,02,35,9.90
2006,10,04,02,36,9.90
2006,10,04,02,37,9.90
2006,10,04,02,38,9.90
2006,10,04,02,39,9.90
2006,10,04,02,40,9.90
2006,10,04,02,41,9.90
2006,10,04,02,42,9.90
2006,10,04,02,43,9.90
2006,10,04,02,44,9.90
2006,10,04,02,45,9.90
2006,10,04,02,46,9.90
2006,10,04,02,47,9.90
2006,10,04,02,48,9.90
2006,10,04,02,49,9.90
2006,10,04,02,50,9.90
2006,10,04,02,51,9.90
2006,10,04,02,52,9.90
2006,10,04,02,53,9.90
2006,10,04,02,54,9.90
2006,10,04,02,55,9.90
2006,10,04,02,56,9.90
2006,10,04,02,57,9.90
2006,10,04,02,58,9.90
2006,10,04,02,59,9.90
2006,10,04,03,00,9.90
2006,10,04,03,01,9.90
2006,10,04,03,02,9.90
2006,10,04,03,03,9.90
2006,10,04,03,04,9.90
2006,10,04,03,05,9.90
2006,10,04,03,06,9.90
2006,10,04,03,07,9.90
2006,10,04,03,08,9.90
2006,10,04,03,09,9.90
2006,10,04,03,10,9.90
2006,10,04,03,11,9.90
2006,10,04,03,12,9.90
2006,10,04,03,13,9.90
2006,10,04,03,14,9.90
2006,10,04,03,15,9.90
2006,10,04,03,16,9.90
2006,10,04,03,17,9.90
2006,10,04,03,18,9.90
2006,10,04,03,19,9.90
2006,10,04,03,20,9.90
2006,10,04,03,21,9.90
2006,10,04,03,22,9.90
2006,10,04,03,23,9.90
2006,10,04,03,24,9.90
2006,10,04,03,25,9.90
2006,10,04,03,26,9.90
2006,10,04,03,27,9.90
2006,10,04,03,28,9.90
2006,10,04,03,29,9.90
2006,10,04,03,30,9.90
2006,10,04,03,31,9.90
2006,10,04,03,32,9.90
2006,10,04,03,33,9.90
2006,10,04,03,34,9.90
2006,10,04,03,35,9.90
2006,10,04,03,36,9.90
2006,10,04,03,37,9.90
2006,10,04,03,38,9.90
2006,10,04,03,39,9.90
2006,10,04,03,40,9.90
2006,10,04,03,41,9.90
2006,10,04,03,42,9.90
2006,10,04,03,43,9.90
2006,10,04,03,44,9.90
2006,10,04,03,45,9.90
2006,10,04,03,46,9.80
2006,10,04,03,47,9.80
2006,10,04,03,48,9.80
2006,10,04,03,49,9.80
2006,10,04,03,50,9.80
2006,10,04,03,51,9.70
2006,10,04,03,52,9.70
2006,10,04,03,53,9.70
2006,10,04,03,54,9.70
2006,10,04,03,55,9.70
2006,10,04,03,56,9.70
2006,10,04,03,57,9.70
2006,10,04,03,58,9.70
2006,10,04,03,59,9.70
2006,10,04,04,00,9.70
2006,10,04,04,01,9.70
2006,10,04,04,02,9.70
2006,10,04,04,03,9.70
2006,10,04,04,04,9.70
2006,10,04,04,05,9.70
2006,10,04,04,06,9.70
2006,10,04,04,07,9.70
2006,10,04,04,08,9.70
2006,10,04,04,09,9.60
2006,10,04,04,10,9.60
2006,10,04,04,11,9.60
2006,10,04,04,12,9.60
2006,10,04,04,13,9.60
2006,10,04,04,14,9.60
2006,10,04,04,15,9.60
2006,10,04,04,16,9.60
2006,10,04,04,17,9.50
2006,10,04,04,18,9.50
2006,10,04,04,19,9.50
2006,10,04,04,20,9.50
2006,10,04,04,21,9.50
2006,10,04,04,22,9.40
2006,10,04,04,23,9.40
2006,10,04,04,24,9.40
2006,10,04,04,25,9.30
2006,10,04,04,26,9.30
2006,10,04,04,27,9.30
2006,10,04,04,28,9.20
2006,10,04,04,29,9.20
2006,10,04,04,30,9.20
2006,10,04,04,31,9.20
2006,10,04,04,32,9.20
2006,10,04,04,33,9.20
2006,10,04,04,34,9.20
2006,10,04,04,35,9.20
2006,10,04,04,36,9.20
2006,10,04,04,37,9.10
2006,10,04,04,38,9.10
2006,10,04,04,39,9.10
2006,10,04,04,40,9.10
2006,10,04,04,41,9.00
2006,10,04,04,42,9.00
2006,10,04,04,43,9.00
2006,10,04,04,44,8.90
2006,10,04,04,45,8.90
2006,10,04,04,46,8.80
2006,10,04,04,47,8.80
2006,10,04,04,48,8.70
2006,10,04,04,49,8.70
2006,10,04,04,50,8.70
2006,10,04,04,51,8.70
2006,10,04,04,52,8.60
2006,10,04,04,53,8.60
2006,10,04,04,54,8.60
2006,10,04,04,55,8.50
2006,10,04,04,56,8.50
2006,10,04,04,57,8.50
2006,10,04,04,58,8.40
2006,10,04,04,59,8.40
2006,10,04,05,00,8.40
2006,10,04,05,01,8.40
2006,10,04,05,02,8.30
2006,10,04,05,03,8.30
2006,10,04,05,04,8.30
2006,10,04,05,05,8.30
2006,10,04,05,06,8.20
2006,10,04,05,07,8.20
2006,10,04,05,08,8.20
2006,10,04,05,09,8.20
2006,10,04,05,10,8.10
2006,10,04,05,11,8.10
2006,10,04,05,12,8.10
2006,10,04,05,13,8.00
2006,10,04,05,14,8.00
2006,10,04,05,15,8.00
2006,10,04,05,16,8.00
2006,10,04,05,17,8.00
2006,10,04,05,18,7.90
2006,10,04,05,19,7.90
2006,10,04,05,20,7.90
2006,10,04,05,21,7.80
2006,10,04,05,22,7.80
2006,10,04,05,23,7.80
2006,10,04,05,24,7.80
2006,10,04,05,25,7.80
2006,10,04,05,26,7.80
2006,10,04,05,27,7.70
2006,10,04,05,28,7.70
2006,10,04,05,29,7.70
2006,10,04,05,30,7.70
2006,10,04,05,31,7.70
2006,10,04,05,32,7.70
2006,10,04,05,33,7.60
2006,10,04,05,34,7.60
2006,10,04,05,35,7.60
2006,10,04,05,36,7.60
2006,10,04,05,37,7.60
2006,10,04,05,38,7.60
2006,10,04,05,39,7.50
2006,10,04,05,40,7.50
2006,10,04,05,41,7.50
2006,10,04,05,42,7.40
2006,10,04,05,43,7.40
2006,10,04,05,44,7.40
2006,10,04,05,45,7.30
2006,10,04,05,46,7.30
2006,10,04,05,47,7.30
2006,10,04,05,48,7.30
2006,10,04,05,49,7.30
2006,10,04,05,50,7.30
2006,10,04,05,51,7.30
2006,10,04,05,52,7.20
2006,10,04,05,53,7.20
2006,10,04,05,54,7.20
2006,10,04,05,55,7.20
2006,10,04,05,56,7.20
2006,10,04,05,57,7.20
2006,10,04,05,58,7.10
2006,10,04,05,59,7.10
2006,10,04,06,00,7.10
2006,10,04,06,01,7.00
2006,10,04,06,02,7.00
2006,10,04,06,03,7.00
2006,10,04,06,04,7.00
2006,10,04,06,05,7.00
2006,10,04,06,06,7.00
2006,10,04,06,07,7.00
2006,10,04,06,08,7.00
2006,10,04,06,09,6.90
2006,10,04,06,10,6.90
2006,10,04,06,11,6.90
2006,10,04,06,12,6.90
2006,10,04,06,13,6.90
2006,10,04,06,14,6.90
2006,10,04,06,15,6.90
2006,10,04,06,16,6.90
2006,10,04,06,17,6.90
2006,10,04,06,18,6.90
2006,10,04,06,19,6.90
2006,10,04,06,20,6.90
2006,10,04,06,21,6.90
2006,10,04,06,22,6.90
2006,10,04,06,23,6.90
2006,10,04,06,24,6.90
2006,10,04,06,25,6.90
2006,10,04,06,26,6.90
2006,10,04,06,27,6.90
2006,10,04,06,28,6.80
2006,10,04,06,29,6.80
2006,10,04,06,30,6.80
2006,10,04,06,31,6.80
2006,10,04,06,32,6.80
2006,10,04,06,33,6.80
2006,10,04,06,34,6.80
2006,10,04,06,35,6.70
2006,10,04,06,36,6.70
2006,10,04,06,37,6.60
2006,10,04,06,38,6.60
2006,10,04,06,39,6.70
2006,10,04,06,40,6.60
2006,10,04,06,41,6.60
2006,10,04,06,42,6.60
2006,10,04,06,43,6.60
2006,10,04,06,44,6.60
2006,10,04,06,45,6.60
2006,10,04,06,46,6.60
2006,10,04,06,47,6.60
2006,10,04,06,48,6.60
2006,10,04,06,49,6.60
2006,10,04,06,50,6.70
2006,10,04,06,51,6.70
2006,10,04,06,52,6.60
2006,10,04,06,53,6.60
2006,10,04,06,54,6.60
2006,10,04,06,55,6.60
2006,10,04,06,56,6.60
2006,10,04,06,57,6.60
2006,10,04,06,58,6.60
2006,10,04,06,59,6.60
2006,10,04,07,00,6.60
2006,10,04,07,01,6.60
2006,10,04,07,02,6.60
2006,10,04,07,03,6.60
2006,10,04,07,04,6.60
2006,10,04,07,05,6.60
2006,10,04,07,06,6.60
2006,10,04,07,07,6.60
2006,10,04,07,08,6.60
2006,10,04,07,09,6.60
2006,10,04,07,10,6.60
2006,10,04,07,11,6.60
2006,10,04,07,12,6.60
2006,10,04,07,13,6.60
2006,10,04,07,14,6.60
2006,10,04,07,15,6.60
2006,10,04,07,16,6.60
2006,10,04,07,17,6.60
2006,10,04,07,18,6.60
2006,10,04,07,19,6.60
2006,10,04,07,20,6.50
2006,10,04,07,21,6.40
2006,10,04,07,22,6.40
2006,10,04,07,23,6.40
2006,10,04,07,24,6.40
2006,10,04,07,25,6.40
2006,10,04,07,26,6.40
2006,10,04,07,27,6.40
2006,10,04,07,28,6.40
2006,10,04,07,29,6.40
2006,10,04,07,30,6.40
2006,10,04,07,31,6.40
2006,10,04,07,32,6.40
2006,10,04,07,33,6.40
2006,10,04,07,34,6.40
2006,10,04,07,35,6.40
2006,10,04,07,36,6.40
2006,10,04,07,37,6.40
2006,10,04,07,38,6.40
2006,10,04,07,39,6.40
2006,10,04,07,40,6.40
2006,10,04,07,41,6.40
2006,10,04,07,42,6.40
2006,10,04,07,43,6.40
2006,10,04,07,44,6.40
2006,10,04,07,45,6.40
2006,10,04,07,46,6.40
2006,10,04,07,47,6.40
2006,10,04,07,48,6.40
2006,10,04,07,49,6.40
2006,10,04,07,50,6.40
2006,10,04,07,51,6.40
2006,10,04,07,52,6.40
2006,10,04,07,53,6.40
2006,10,04,07,54,6.40
2006,10,04,07,55,6.40
2006,10,04,07,56,6.40
2006,10,04,07,57,6.40
2006,10,04,07,58,6.40
2006,10,04,07,59,6.40
2006,10,04,08,00,6.40
2006,10,04,08,01,6.40
2006,10,04,08,02,6.40
2006,10,04,08,03,6.50
2006,10,04,08,04,6.60
2006,10,04,08,05,6.60
2006,10,04,08,06,6.60
2006,10,04,08,07,6.60
2006,10,04,08,08,6.60
2006,10,04,08,09,6.70
2006,10,04,08,10,6.70
2006,10,04,08,11,6.70
2006,10,04,08,12,6.70
2006,10,04,08,13,6.80
2006,10,04,08,14,6.80
2006,10,04,08,15,6.90
2006,10,04,08,16,6.90
2006,10,04,08,17,7.00
2006,10,04,08,18,7.00
2006,10,04,08,19,7.00
2006,10,04,08,20,7.00
2006,10,04,08,21,7.10
2006,10,04,08,22,7.10
2006,10,04,08,23,7.20
2006,10,04,08,24,7.20
2006,10,04,08,25,7.20
2006,10,04,08,26,7.30
2006,10,04,08,27,7.30
2006,10,04,08,28,7.30
2006,10,04,08,29,7.40
2006,10,04,08,30,7.40
2006,10,04,08,31,7.50
2006,10,04,08,32,7.60
2006,10,04,08,33,7.60
2006,10,04,08,34,7.70
2006,10,04,08,35,7.80
2006,10,04,08,36,7.90
2006,10,04,08,37,7.90
2006,10,04,08,38,8.10
2006,10,04,08,39,8.20
2006,10,04,08,40,8.30
2006,10,04,08,41,8.40
2006,10,04,08,42,8.50
2006,10,04,08,43,8.60
2006,10,04,08,44,8.70
2006,10,04,08,45,8.80
2006,10,04,08,46,8.90
2006,10,04,08,47,9.00
2006,10,04,08,48,9.00
2006,10,04,08,49,9.10
2006,10,04,08,50,9.10
2006,10,04,08,51,9.10
2006,10,04,08,52,9.20
2006,10,04,08,53,9.20
2006,10,04,08,54,9.20
2006,10,04,08,55,9.20
2006,10,04,08,56,9.20
2006,10,04,08,57,9.30
2006,10,04,08,58,9.40
2006,10,04,08,59,9.40
2006,10,04,09,00,9.60
2006,10,04,09,01,9.70
2006,10,04,09,02,9.90
2006,10,04,09,03,10.00
2006,10,04,09,04,10.10
2006,10,04,09,05,10.10
2006,10,04,09,06,10.20
2006,10,04,09,07,10.20
2006,10,04,09,08,10.30
2006,10,04,09,09,10.30
2006,10,04,09,10,10.40
2006,10,04,09,11,10.40
2006,10,04,09,12,10.50
2006,10,04,09,13,10.60
2006,10,04,09,14,10.60
2006,10,04,09,15,10.70
2006,10,04,09,16,10.80
2006,10,04,09,17,11.00
2006,10,04,09,18,11.20
2006,10,04,09,19,11.40
2006,10,04,09,20,11.50
2006,10,04,09,21,11.70
2006,10,04,09,22,11.80
2006,10,04,09,23,11.90
2006,10,04,09,24,12.10
2006,10,04,09,25,12.20
2006,10,04,09,26,12.30
2006,10,04,09,27,12.30
2006,10,04,09,28,12.40
2006,10,04,09,29,12.50
2006,10,04,09,30,12.50
2006,10,04,09,31,12.70
2006,10,04,09,32,12.70
2006,10,04,09,33,12.80
2006,10,04,09,34,12.90
2006,10,04,09,35,13.00
2006,10,04,09,36,13.10
2006,10,04,09,37,13.20
2006,10,04,09,38,13.30
2006,10,04,09,39,13.30
2006,10,04,09,40,13.30
2006,10,04,09,41,13.40
2006,10,04,09,42,13.50
2006,10,04,09,43,13.50
2006,10,04,09,44,13.60
2006,10,04,09,45,13.60
2006,10,04,09,46,13.70
2006,10,04,09,47,13.70
2006,10,04,09,48,13.70
2006,10,04,09,49,13.70
2006,10,04,09,50,13.70
2006,10,04,09,51,13.70
2006,10,04,09,52,13.70
2006,10,04,09,53,13.70
2006,10,04,09,54,13.80
2006,10,04,09,55,13.80
2006,10,04,09,56,13.80
2006,10,04,09,57,13.80
2006,10,04,09,58,13.90
2006,10,04,09,59,13.90
2006,10,04,10,00,13.90
2006,10,04,10,01,13.90
2006,10,04,10,02,13.90
2006,10,04,10,03,13.90
2006,10,04,10,04,13.90
2006,10,04,10,05,13.90
2006,10,04,10,06,14.00
2006,10,04,10,07,14.00
2006,10,04,10,08,14.00
2006,10,04,10,09,14.00
2006,10,04,10,10,14.00
2006,10,04,10,11,14.10
2006,10,04,10,12,14.10
2006,10,04,10,13,14.20
2006,10,04,10,14,14.20
2006,10,04,10,15,14.20
2006,10,04,10,16,14.20
2006,10,04,10,17,14.20
2006,10,04,10,18,14.20
2006,10,04,10,19,14.30
2006,10,04,10,20,14.40
2006,10,04,10,21,14.40
2006,10,04,10,22,14.40
2006,10,04,10,23,14.50
2006,10,04,10,24,14.50
2006,10,04,10,25,14.50
2006,10,04,10,26,14.60
2006,10,04,10,27,14.60
2006,10,04,10,28,14.70
2006,10,04,10,29,14.80
2006,10,04,10,30,14.80
2006,10,04,10,31,14.80
2006,10,04,10,32,14.80
2006,10,04,10,33,14.80
2006,10,04,10,34,14.90
2006,10,04,10,35,14.90
2006,10,04,10,36,15.00
2006,10,04,10,37,15.00
2006,10,04,10,38,15.00
2006,10,04,10,39,15.10
2006,10,04,10,40,15.10
2006,10,04,10,41,15.10
2006,10,04,10,42,15.10
2006,10,04,10,43,15.10
2006,10,04,10,44,15.10
2006,10,04,10,45,15.20
2006,10,04,10,46,15.30
2006,10,04,10,47,15.30
2006,10,04,10,48,15.30
2006,10,04,10,49,15.30
2006,10,04,10,50,15.30
2006,10,04,10,51,15.40
2006,10,04,10,52,15.40
2006,10,04,10,53,15.50
2006,10,04,10,54,15.50
2006,10,04,10,55,15.60
2006,10,04,10,56,15.70
2006,10,04,10,57,15.80
2006,10,04,10,58,15.80
2006,10,04,10,59,15.80
2006,10,04,11,00,15.70
2006,10,04,11,01,15.80
2006,10,04,11,02,15.80
2006,10,04,11,03,15.80
2006,10,04,11,04,15.80
2006,10,04,11,05,15.80
2006,10,04,11,06,15.80
2006,10,04,11,07,15.80
2006,10,04,11,08,15.90
2006,10,04,11,09,15.90
2006,10,04,11,10,16.00
2006,10,04,11,11,16.10
2006,10,04,11,12,16.10
2006,10,04,11,13,16.20
2006,10,04,11,14,16.20
2006,10,04,11,15,16.20
2006,10,04,11,16,16.20
2006,10,04,11,17,16.30
2006,10,04,11,18,16.40
2006,10,04,11,19,16.40
2006,10,04,11,20,16.40
2006,10,04,11,21,16.40
2006,10,04,11,22,16.40
2006,10,04,11,23,16.40
2006,10,04,11,24,16.40
2006,10,04,11,25,16.40
2006,10,04,11,26,16.30
2006,10,04,11,27,16.30
2006,10,04,11,28,16.30
2006,10,04,11,29,16.30
2006,10,04,11,30,16.30
2006,10,04,11,31,16.30
2006,10,04,11,32,16.40
2006,10,04,11,33,16.40
2006,10,04,11,34,16.40
2006,10,04,11,35,16.40
2006,10,04,11,36,16.40
2006,10,04,11,37,16.40
2006,10,04,11,38,16.40
2006,10,04,11,39,16.50
2006,10,04,11,40,16.60
2006,10,04,11,41,16.60
2006,10,04,11,42,16.60
2006,10,04,11,43,16.60
2006,10,04,11,44,16.70
2006,10,04,11,45,16.70
2006,10,04,11,46,16.80
2006,10,04,11,47,16.80
2006,10,04,11,48,16.80
2006,10,04,11,49,16.80
2006,10,04,11,50,16.80
2006,10,04,11,51,16.90
2006,10,04,11,52,16.80
2006,10,04,11,53,16.80
2006,10,04,11,54,16.90
2006,10,04,11,55,16.90
2006,10,04,11,56,17.00
2006,10,04,11,57,17.00
2006,10,04,11,58,17.00
2006,10,04,11,59,17.10
2006,10,04,12,00,17.10
2006,10,04,12,01,17.10
2006,10,04,12,02,17.10
2006,10,04,12,03,17.10
2006,10,04,12,04,17.10
2006,10,04,12,05,17.10
2006,10,04,12,06,17.20
2006,10,04,12,07,17.30
2006,10,04,12,08,17.30
2006,10,04,12,09,17.40
2006,10,04,12,10,17.50
2006,10,04,12,11,17.60
2006,10,04,12,12,17.60
2006,10,04,12,13,17.60
2006,10,04,12,14,17.70
2006,10,04,12,15,17.80
2006,10,04,12,16,17.90
2006,10,04,12,17,17.90
2006,10,04,12,18,17.90
2006,10,04,12,19,17.90
2006,10,04,12,20,17.90
2006,10,04,12,21,17.90
2006,10,04,12,22,17.90
2006,10,04,12,23,17.90
2006,10,04,12,24,17.90
2006,10,04,12,25,17.90
2006,10,04,12,26,17.90
2006,10,04,12,27,18.00
2006,10,04,12,28,18.10
2006,10,04,12,29,18.10
2006,10,04,12,30,18.10
2006,10,04,12,31,18.10
2006,10,04,12,32,18.00
2006,10,04,12,33,17.90
2006,10,04,12,34,17.90
2006,10,04,12,35,17.90
2006,10,04,12,36,17.90
2006,10,04,12,37,17.90
2006,10,04,12,38,17.90
2006,10,04,12,39,17.90
2006,10,04,12,40,17.90
2006,10,04,12,41,17.90
2006,10,04,12,42,17.90
2006,10,04,12,43,17.90
2006,10,04,12,44,17.90
2006,10,04,12,45,18.10
2006,10,04,12,46,18.10
2006,10,04,12,47,18.10
2006,10,04,12,48,18.10
2006,10,04,12,49,18.00
2006,10,04,12,50,17.90
2006,10,04,12,51,17.90
2006,10,04,12,52,17.90
2006,10,04,12,53,17.90
2006,10,04,12,54,17.90
2006,10,04,12,55,17.90
2006,10,04,12,56,17.90
2006,10,04,12,57,17.90
2006,10,04,12,58,17.80
2006,10,04,12,59,17.80
2006,10,04,13,00,17.70
2006,10,04,13,01,17.70
2006,10,04,13,02,17.70
2006,10,04,13,03,17.80
2006,10,04,13,04,17.90
2006,10,04,13,05,17.90
2006,10,04,13,06,18.00
2006,10,04,13,07,18.10
2006,10,04,13,08,18.20
2006,10,04,13,09,18.20
2006,10,04,13,10,18.20
2006,10,04,13,11,18.20
2006,10,04,13,12,18.20
2006,10,04,13,13,18.10
2006,10,04,13,14,18.00
2006,10,04,13,15,17.90
2006,10,04,13,16,17.90
2006,10,04,13,17,17.90
2006,10,04,13,18,17.90
2006,10,04,13,19,17.90
2006,10,04,13,20,17.90
2006,10,04,13,21,17.90
2006,10,04,13,22,17.90
2006,10,04,13,23,17.90
2006,10,04,13,24,17.90
2006,10,04,13,25,17.90
2006,10,04,13,26,18.10
2006,10,04,13,27,18.10
2006,10,04,13,28,18.20
2006,10,04,13,29,18.20
2006,10,04,13,30,18.20
2006,10,04,13,31,18.20
2006,10,04,13,32,18.20
2006,10,04,13,33,18.30
2006,10,04,13,34,18.30
2006,10,04,13,35,18.30
2006,10,04,13,36,18.30
2006,10,04,13,37,18.30
2006,10,04,13,38,18.40
2006,10,04,13,39,18.40
2006,10,04,13,40,18.40
2006,10,04,13,41,18.40
2006,10,04,13,42,18.40
2006,10,04,13,43,18.40
2006,10,04,13,44,18.50
2006,10,04,13,45,18.50
2006,10,04,13,46,18.50
2006,10,04,13,47,18.60
2006,10,04,13,48,18.60
2006,10,04,13,49,18.60
2006,10,04,13,50,18.60
2006,10,04,13,51,18.70
2006,10,04,13,52,18.80
2006,10,04,13,53,18.90
2006,10,04,13,54,18.90
2006,10,04,13,55,18.90
2006,10,04,13,56,18.90
2006,10,04,13,57,18.90
2006,10,04,13,58,18.90
2006,10,04,13,59,18.90
2006,10,04,14,00,18.90
2006,10,04,14,01,18.90
2006,10,04,14,02,18.90
2006,10,04,14,03,18.90
2006,10,04,14,04,18.90
2006,10,04,14,05,18.90
2006,10,04,14,06,18.90
2006,10,04,14,07,18.80
2006,10,04,14,08,18.80
2006,10,04,14,09,18.70
2006,10,04,14,10,18.80
2006,10,04,14,11,18.80
2006,10,04,14,12,18.90
2006,10,04,14,13,18.90
2006,10,04,14,14,18.90
2006,10,04,14,15,18.90
2006,10,04,14,16,18.90
2006,10,04,14,17,18.90
2006,10,04,14,18,18.90
2006,10,04,14,19,18.90
2006,10,04,14,20,18.80
2006,10,04,14,21,18.80
2006,10,04,14,22,18.80
2006,10,04,14,23,18.80
2006,10,04,14,24,18.90
2006,10,04,14,25,18.90
2006,10,04,14,26,18.90
2006,10,04,14,27,18.90
2006,10,04,14,28,18.90
2006,10,04,14,29,18.90
2006,10,04,14,30,18.90
2006,10,04,14,31,18.90
2006,10,04,14,32,18.90
2006,10,04,14,33,18.90
2006,10,04,14,34,19.00
2006,10,04,14,35,19.10
2006,10,04,14,36,19.10
2006,10,04,14,37,19.10
2006,10,04,14,38,19.10
2006,10,04,14,39,19.10
2006,10,04,14,40,19.20
2006,10,04,14,41,19.20
2006,10,04,14,42,19.20
2006,10,04,14,43,19.20
2006,10,04,14,44,19.20
2006,10,04,14,45,19.20
2006,10,04,14,46,19.30
2006,10,04,14,47,19.30
2006,10,04,14,48,19.40
2006,10,04,14,49,19.40
2006,10,04,14,50,19.50
2006,10,04,14,51,19.50
2006,10,04,14,52,19.60
2006,10,04,14,53,19.60
2006,10,04,14,54,19.50
2006,10,04,14,55,19.40
2006,10,04,14,56,19.40
2006,10,04,14,57,19.40
2006,10,04,14,58,19.40
2006,10,04,14,59,19.40
2006,10,04,15,00,19.40
2006,10,04,15,01,19.30
2006,10,04,15,02,19.10
2006,10,04,15,03,19.10
2006,10,04,15,04,19.10
2006,10,04,15,05,19.00
2006,10,04,15,06,18.90
2006,10,04,15,07,18.90
2006,10,04,15,08,18.90
2006,10,04,15,09,19.10
2006,10,04,15,10,19.10
2006,10,04,15,11,19.20
2006,10,04,15,12,19.30
2006,10,04,15,13,19.40
2006,10,04,15,14,19.50
2006,10,04,15,15,19.60
2006,10,04,15,16,19.60
2006,10,04,15,17,19.70
2006,10,04,15,18,19.80
2006,10,04,15,19,19.90
2006,10,04,15,20,19.90
2006,10,04,15,21,19.90
2006,10,04,15,22,19.80
2006,10,04,15,23,19.80
2006,10,04,15,24,19.70
2006,10,04,15,25,19.70
2006,10,04,15,26,19.70
2006,10,04,15,27,19.70
2006,10,04,15,28,19.80
2006,10,04,15,29,19.80
2006,10,04,15,30,19.90
2006,10,04,15,31,19.90
2006,10,04,15,32,19.90
2006,10,04,15,33,19.90
2006,10,04,15,34,19.80
2006,10,04,15,35,19.80
2006,10,04,15,36,19.80
2006,10,04,15,37,19.70
2006,10,04,15,38,19.70
2006,10,04,15,39,19.70
2006,10,04,15,40,19.70
2006,10,04,15,41,19.70
2006,10,04,15,42,19.80
2006,10,04,15,43,19.80
2006,10,04,15,44,19.80
2006,10,04,15,45,19.80
2006,10,04,15,46,19.90
2006,10,04,15,47,19.90
2006,10,04,15,48,20.00
2006,10,04,15,49,20.10
2006,10,04,15,50,20.10
2006,10,04,15,51,20.20
2006,10,04,15,52,20.20
2006,10,04,15,53,20.20
2006,10,04,15,54,20.20
2006,10,04,15,55,20.20
2006,10,04,15,56,20.20
2006,10,04,15,57,20.20
2006,10,04,15,58,20.20
2006,10,04,15,59,20.20
2006,10,04,16,00,20.20
2006,10,04,16,01,20.20
2006,10,04,16,02,20.20
2006,10,04,16,03,20.10
2006,10,04,16,04,20.00
2006,10,04,16,05,19.90
2006,10,04,16,06,19.80
2006,10,04,16,07,19.80
2006,10,04,16,08,19.80
2006,10,04,16,09,19.80
2006,10,04,16,10,19.80
2006,10,04,16,11,19.70
2006,10,04,16,12,19.70
2006,10,04,16,13,19.60
2006,10,04,16,14,19.50
2006,10,04,16,15,19.50
2006,10,04,16,16,19.40
2006,10,04,16,17,19.40
2006,10,04,16,18,19.40
2006,10,04,16,19,19.30
2006,10,04,16,20,19.30
2006,10,04,16,21,19.20
2006,10,04,16,22,19.10
2006,10,04,16,23,19.20
2006,10,04,16,24,19.30
2006,10,04,16,25,19.30
2006,10,04,16,26,19.40
2006,10,04,16,27,19.50
2006,10,04,16,28,19.60
2006,10,04,16,29,19.70
2006,10,04,16,30,19.70
2006,10,04,16,31,19.80
2006,10,04,16,32,19.80
2006,10,04,16,33,19.80
2006,10,04,16,34,19.90
2006,10,04,16,35,19.90
2006,10,04,16,36,19.90
2006,10,04,16,37,19.90
2006,10,04,16,38,19.90
2006,10,04,16,39,19.90
2006,10,04,16,40,19.80
2006,10,04,16,41,19.80
2006,10,04,16,42,19.80
2006,10,04,16,43,19.80
2006,10,04,16,44,19.80
2006,10,04,16,45,19.80
2006,10,04,16,46,19.80
2006,10,04,16,47,19.80
2006,10,04,16,48,19.80
2006,10,04,16,49,19.80
2006,10,04,16,50,19.80
2006,10,04,16,51,19.80
2006,10,04,16,52,19.80
2006,10,04,16,53,19.80
2006,10,04,16,54,19.70
2006,10,04,16,55,19.70
2006,10,04,16,56,19.70
2006,10,04,16,57,19.70
2006,10,04,16,58,19.70
2006,10,04,16,59,19.80
2006,10,04,17,00,19.70
2006,10,04,17,01,19.70
2006,10,04,17,02,19.70
2006,10,04,17,03,19.80
2006,10,04,17,04,19.80
2006,10,04,17,05,19.80
2006,10,04,17,06,19.80
2006,10,04,17,07,19.70
2006,10,04,17,08,19.70
2006,10,04,17,09,19.70
2006,10,04,17,10,19.70
2006,10,04,17,11,19.80
2006,10,04,17,12,19.80
2006,10,04,17,13,19.80
2006,10,04,17,14,19.80
2006,10,04,17,15,19.80
2006,10,04,17,16,19.80
2006,10,04,17,17,19.80
2006,10,04,17,18,19.80
2006,10,04,17,19,19.80
2006,10,04,17,20,19.80
2006,10,04,17,21,19.80
2006,10,04,17,22,19.80
2006,10,04,17,23,19.80
2006,10,04,17,24,19.80
2006,10,04,17,25,19.80
2006,10,04,17,26,19.80
2006,10,04,17,27,19.80
2006,10,04,17,28,19.80
2006,10,04,17,29,19.80
2006,10,04,17,30,19.80
2006,10,04,17,31,19.70
2006,10,04,17,32,19.70
2006,10,04,17,33,19.70
2006,10,04,17,34,19.60
2006,10,04,17,35,19.60
2006,10,04,17,36,19.50
2006,10,04,17,37,19.40
2006,10,04,17,38,19.40
2006,10,04,17,39,19.30
2006,10,04,17,40,19.20
2006,10,04,17,41,19.10
2006,10,04,17,42,19.10
2006,10,04,17,43,19.10